Weather Roundup
Issued by NWS

Home | Current Version | Previous Version | Graphics & Text | Print | Product List | Glossary Off
Versions: 1 2 3 4 5 6 7 8 9 10 11 12 13 14 15 16 17 18 19 20 21 22 23 24 25 26 27 28 29 30 31 32 33 34 35 36 37 38 39 40 41 42 43 44 45 46 47 48 49 50

000
NZUS93 KARX 030359
HRRWXR

CURRENT HOURLY OBSERVATIONS ACROSS
MUCH OF THE UPPER MISSISSIPPI VALLEY
NATIONAL WEATHER SERVICE LA CROSSE WI
1100 PM CDT WED SEP 02 2015


...SOUTHEAST MINNESOTA...


CITY           SKY/WX    TMP DP  RH WIND       PRES   REMARKS
ROCHESTER      PTCLDY    71  69  93 S7        29.92S
ROCHESTER/MAYO FAIR      75  73  91 SE3       29.92S
WINONA         MOCLDY    73  70  88 CALM      29.91R
AUSTIN         PTCLDY    73  70  88 CALM      29.92R
ALBERT LEA     CLEAR     73  72  94 CALM      29.91R
DODGE CENTER   PTCLDY    72  70  94 S3        29.92S
PRESTON        CLEAR     72  68  88 S3        29.93S
OWATONNA       PTCLDY    73  70  88 SE6       29.90S
FARIBAULT      FOG       70  70 100 CALM      29.91R VSB 1
$$

...ELSEWHERE IN MINNESOTA...


CITY           SKY/WX    TMP DP  RH WIND       PRES   REMARKS
MINNEAPOLIS    MOCLDY    70  67  90 NE7       29.91R
INTNL FALLS    CLEAR     65  63  93 SE6       29.93S
DULUTH         PTCLDY    61  59  93 E8        29.98R
RED WING       PTCLDY    72  70  94 E6        29.90S
REDWOOD FALLS  PTCLDY    74  72  93 E6        29.86S FOG
MANKATO        PTCLDY    73  70  88 SE7       29.89R
WORTHINGTON    CLEAR     72  66  83 SE5       29.89S
FAIRMONT       CLEAR     72  64  78 S5        29.89R
$$

...SOUTHWEST WISCONSIN...


CITY           SKY/WX    TMP DP  RH WIND       PRES   REMARKS
LA CROSSE      MOCLDY    78  70  76 S8        29.90S
PRAIRIE DU CHI CLEAR     74  66  77 CALM      29.92S
BOSCOBEL       CLOUDY    79  69  71 SW7       29.94R
LONE ROCK      NOT AVBL
PLATTEVILLE    CLEAR     73  70  92 S3        29.96S
FORT MC COY    PTCLDY    69  67  93 CALM      29.93R
VIROQUA          N/A     73  70  91 S7        29.95R
WIS DELLS      MOCLDY    71  67  87 CALM      29.95R
$$

...ELSEWHERE IN WISCONSIN...


CITY           SKY/WX    TMP DP  RH WIND       PRES   REMARKS
MILWAUKEE      MOCLDY    78  71  79 S6        29.95F
MADISON        CLOUDY    77  68  73 S3        29.95R
GREEN BAY      CLOUDY    70  68  93 E5        29.92F FOG
EAU CLAIRE     NOT AVBL
BLACK RVR FLS  MOCLDY    70  70 100 CALM      29.91S
MEDFORD        CLOUDY    67  67 100 NE3       29.96R
WAUSAU         LGT RAIN  69  67  93 E3        29.93S
WIS RAPIDS     CLOUDY    73  70  90 CALM      29.94S
MARSHFIELD     CLOUDY    72  67  84 NE7       29.94S
RICE LAKE      PTCLDY    65  64  94 CALM      29.96R FOG
$$

...NORTHEAST IOWA...


CITY           SKY/WX    TMP DP  RH WIND       PRES   REMARKS
DECORAH        PTCLDY    73  70  88 S7        29.93R
MASON CITY     CLEAR     69  68  96 S6        29.92S
CHARLES CITY   CLEAR     72  72 100 S6        29.93S
OELWEIN          N/A     72  70  94 S7        29.94S
$$

...ELSEWHERE IN IOWA...


CITY           SKY/WX    TMP DP  RH WIND       PRES   REMARKS
DES MOINES     PTCLDY    76  70  82 S8        29.92R
IOWA CITY      CLEAR     74  70  87 CALM      29.96R
FORT DODGE     CLEAR     75  66  73 S7        29.91S
$$

...NORTHERN ILLINOIS...


CITY           SKY/WX    TMP DP  RH WIND       PRES   REMARKS
CHICAGO-OHARE  MOCLDY    79  67  66 S6        29.97S
CHICAGO-MIDWAY MOCLDY    82  69  64 S5        29.98R
MOLINE         PTCLDY    76  67  73 CALM      29.96R
ROCKFORD       MOCLDY    75  70  84 S5        29.97S
PEORIA         CLEAR     77  66  68 S5        29.98S
$$

NOTE: "FAIR" INDICATES FEW OR NO CLOUDS BELOW 12,000 FEET WITH NO
SIGNIFICANT WEATHER AND/OR OBSTRUCTIONS TO VISIBILITY. WIND
SPEEDS ARE IN MILES-PER-HOUR.



USA.gov is the U.S. government's official web portal to all federal, state and local government web resources and services.